Stations météo

Publicité
Abbeville, France (7005): Température de l'air & dewpoint: 14.08.2019 14:00:00 - 20.08.2019 14:00:00 (CEST)Abbeville, France (7005): Température de l'air 5cm: 14.08.2019 14:00:00 - 20.08.2019 14:00:00 (CEST)Abbeville, France (7005): Température de l'air -20cm & Température de l'air -100cm: 14.08.2019 14:00:00 - 20.08.2019 14:00:00 (CEST)Abbeville, France (7005): Vitesse du vent & gusts: 14.08.2019 14:00:00 - 20.08.2019 14:00:00 (CEST)Abbeville, France (7005): Direction du vent: 14.08.2019 14:00:00 - 20.08.2019 14:00:00 (CEST)Abbeville, France (7005): reduced air pressure: 14.08.2019 14:00:00 - 20.08.2019 14:00:00 (CEST)Abbeville, France (7005): visibility: 14.08.2019 14:00:00 - 20.08.2019 14:00:00 (CEST)Abbeville, France (7005): Ensoleillement: 14.08.2019 14:00:00 - 20.08.2019 14:00:00 (CEST)Abbeville, France (7005): Quantités de précipitations: 14.08.2019 14:00:00 - 20.08.2019 14:00:00 (CEST)
Date & Time tt [°C] td [°C] tt 5cm [°C] tt -20cm [°C] tt -100cm [°C] ff [km/h] ff [knt] fx [km/h] fx [knt] dd ppp [hPa] vv [km] sd [min] rr [mm]
20.08.2019 14:00:00 18,8 10,9 19,9 16,8 17,1 21 11 36 20 W 1024,5 20 55 0,0
20.08.2019 13:00:00 19,1 10,4 20,7 16,3 17,0 20 11 34 18 W 1024,2 20 54 0,0
20.08.2019 12:00:00 18,6 11,9 19,4 15,9 17,1 19 11 32 18 W 1023,9 20 51 0,0
20.08.2019 11:00:00 17,5 11,5 18,8 15,7 17,1 17 9 27 15 W 1023,8 20 46 0,0
20.08.2019 10:00:00 16,7 13,2 19,8 15,6 17,0 10 6 21 11 WSW 1023,4 20 60 0,0
20.08.2019 09:00:00 14,7 12,9 15,3 15,6 17,0 6 4 14 7 SSW 1023,1 20 58 0,0
20.08.2019 08:00:00 12,6 11,5 10,2 15,9 17,0 5 3 11 6 S 1022,7 20 12 0,0
20.08.2019 07:00:00 11,5 10,4 9,9 16,1 17,1 6 4 11 6 S 1022,1 19 0 0,0
20.08.2019 06:00:00 11,5 10,4 9,7 16,3 17,1 5 3 9 5 SSE 1021,4 20 0 0,0
20.08.2019 05:00:00 11,8 10,5 9,6 16,5 17,0 4 2 9 5 S 1021,5 20 0 0,0
20.08.2019 04:00:00 12,0 10,7 10,0 16,8 17,1 4 2 10 6 SSW 1021,4 20 0 0,0
20.08.2019 03:00:00 12,3 10,9 10,4 17,0 17,1 5 3 12 7 SSW 1021,6 20 0 0,0
20.08.2019 02:00:00 12,6 11,0 11,0 17,2 17,1 5 3 10 5 SSW 1021,4 19 0 0,0
20.08.2019 01:00:00 13,1 11,5 10,8 17,5 17,1 5 3 11 6 S 1021,5 20 0 0,0
20.08.2019 00:00:00 13,3 11,4 10,6 17,8 17,1 3 1 9 5 SSW 1021,3 20 0 0,0
19.08.2019 23:00:00 13,8 11,3 11,3 18,0 17,1 4 2 11 6 WSW 1020,8 20 0 0,0
19.08.2019 22:00:00 14,9 11,7 13,4 18,2 17,1 6 3 16 9 WSW 1020,5 20 0 0,0
19.08.2019 21:00:00 16,1 12,1 15,0 18,3 17,1 11 6 29 16 W 1019,9 20 39 0,0
19.08.2019 20:00:00 17,5 12,0 17,8 18,3 17,1 21 11 38 21 W 1019,4 20 51 0,0
19.08.2019 19:00:00 18,3 11,6 19,5 18,2 17,1 26 14 39 21 W 1019,3 20 55 0,0
19.08.2019 18:00:00 18,8 11,8 19,7 18,0 17,1 27 15 42 23 W 1019,0 20 57 0,0
19.08.2019 17:00:00 19,2 11,0 20,5 17,8 17,1 27 14 44 24 W 1018,8 20 54 0,0
19.08.2019 16:00:00 19,0 12,5 18,8 17,6 17,1 25 14 43 23 W 1018,7 20 6 0,0
19.08.2019 15:00:00 19,8 12,3 18,5 17,3 17,1 28 15 48 26 W 1018,2 20 47 0,0
19.08.2019 14:00:00 18,1 13,8 15,1 17,1 17,1 14 7 41 22 WSW 1018,0 20 1 0,2
19.08.2019 13:00:00 17,7 13,0 14,7 16,8 17,1 17 9 46 25 WSW 1017,5 17 15 0,2
19.08.2019 12:00:00 18,7 11,5 19,4 16,5 17,1 17 9 37 20 WSW 1017,1 20 45 0,0
19.08.2019 11:00:00 17,8 12,7 18,0 16,3 17,1 17 9 34 18 WSW 1016,7 19 31 0,0
19.08.2019 10:00:00 17,2 13,5 17,7 16,2 17,1 12 7 29 15 WSW 1016,1 19 52 0,0
19.08.2019 09:00:00 15,5 13,2 15,2 16,3 17,1 9 5 21 12 SW 1015,8 20 47 0,0
19.08.2019 08:00:00 13,4 12,0 11,5 16,4 17,1 8 4 17 9 SSW 1015,6 20 13 0,0
19.08.2019 07:00:00 12,5 10,9 11,3 16,6 17,1 6 4 16 9 S 1015,2 20 0 0,0
19.08.2019 06:00:00 13,2 11,6 12,0 16,7 17,1 6 4 16 9 SSW 1014,8 20 0 0,0
19.08.2019 05:00:00 13,5 11,9 12,0 16,9 17,1 6 3 19 10 SW 1014,5 8 0 0,4
19.08.2019 04:00:00 13,1 11,3 10,9 17,1 17,1 8 4 14 8 SSW 1014,3 20 0 0,2
19.08.2019 03:00:00 13,1 11,0 11,2 17,3 17,1 7 4 14 8 SW 1014,1 20 0 0,0
19.08.2019 02:00:00 13,1 10,6 11,2 17,5 17,1 5 3 12 6 SW 1013,7 20 0 0,0
19.08.2019 01:00:00 13,7 11,0 11,9 17,8 17,1 6 3 12 6 WSW 1013,4 8 0 0,4
19.08.2019 00:00:00 13,6 10,6 11,9 18,0 17,1 6 3 16 9 SW 1012,9 20 0 0,0
18.08.2019 23:00:00 13,8 10,8 12,5 18,3 17,1 4 2 13 7 SSW 1012,3 20 0 0,0
18.08.2019 22:00:00 14,9 11,1 13,5 18,5 17,1 6 3 19 10 SW 1011,9 20 0 0,0
18.08.2019 21:00:00 16,0 11,4 15,0 18,7 17,1 11 6 33 18 W 1011,3 20 36 0,0
18.08.2019 20:00:00 17,6 11,8 17,9 18,7 17,1 23 12 44 24 W 1011,1 20 58 0,0
18.08.2019 19:00:00 18,6 11,7 18,3 18,7 17,1 25 13 44 24 W 1010,7 20 40 0,0
18.08.2019 18:00:00 19,3 12,1 19,5 18,6 17,1 28 15 47 25 W 1010,2 20 51 0,0
18.08.2019 17:00:00 19,2 11,2 19,8 18,3 17,1 30 16 48 26 W 1010,2 20 53 0,0
18.08.2019 16:00:00 18,9 11,9 21,4 18,1 17,2 30 16 52 28 W 1009,6 20 58 0,0
18.08.2019 15:00:00 19,3 12,6 19,1 17,8 17,1 34 18 52 28 W 1008,6 20 26 0,0
18.08.2019 14:00:00 18,8 13,9 19,3 17,5 17,1 20 11 36 20 WSW 1008,0 20 23 0,0
18.08.2019 13:00:00 17,6 13,7 18,8 17,3 17,1 22 12 35 19 W 1007,4 20 23 0,0
18.08.2019 12:00:00 17,2 15,0 15,9 17,2 17,1 14 8 23 12 W 1006,5 20 12 0,0
18.08.2019 11:00:00 15,5 14,5 15,2 17,2 17,1 12 7 21 11 WNW 1005,7 20 0 0,0
18.08.2019 10:00:00 15,2 14,2 15,3 17,2 17,1 12 7 21 12 W 1004,9 7 0 0,0
18.08.2019 09:00:00 14,8 14,2 14,1 17,2 17,1 5 3 8 5 W 1004,2 20 0 0,4
18.08.2019 08:00:00 14,3 13,5 14,0 17,3 17,1 6 4 15 8 SE 1003,7 5 0 1,1
18.08.2019 07:00:00 14,3 13,5 13,9 17,4 17,2 7 4 12 7 SSE 1004,6 5 0 2,0
18.08.2019 06:00:00 14,6 13,6 14,2 17,5 17,1 5 3 17 9 S 1004,8 7 0 2,0
18.08.2019 05:00:00 15,3 14,2 14,7 17,6 17,1 5 3 13 7 S 1006,0 3,4 0 1,6
18.08.2019 04:00:00 15,6 14,1 14,8 17,7 17,1 7 4 16 9 SE 1006,3 20 0 0,2
18.08.2019 03:00:00 15,8 14,2 15,0 17,8 17,2 8 4 16 9 S 1007,4 19 0 0,0
18.08.2019 02:00:00 15,9 13,9 14,7 17,9 17,1 6 3 11 6 S 1007,6 20 0 0,2
18.08.2019 01:00:00 16,0 13,5 15,2 18,0 17,1 4 2 12 7 S 1007,9 20 0 0,0
18.08.2019 00:00:00 16,0 13,7 15,4 18,1 17,2 5 3 11 6 SSW 1008,3 20 0 0,0
17.08.2019 23:00:00 16,0 13,7 15,4 18,3 17,1 5 3 10 5 SSW 1008,8 20 0 0,0
17.08.2019 22:00:00 16,4 13,9 15,7 18,4 17,2 5 3 9 5 S 1008,6 20 0 0,0
17.08.2019 21:00:00 16,6 13,5 15,9 18,5 17,2 3 2 13 7 SSW 1008,7 16 0 0,0
17.08.2019 20:00:00 17,2 13,7 17,0 18,5 17,2 8 4 21 12 WSW 1008,6 20 0 0,0
17.08.2019 19:00:00 17,7 13,6 17,9 18,6 17,2 16 8 23 12 W 1008,6 20 0 0,0
17.08.2019 18:00:00 18,0 13,5 18,3 18,5 17,1 16 9 29 16 W 1008,7 20 0 0,0
17.08.2019 17:00:00 18,3 14,0 19,1 18,4 17,2 18 10 29 16 W 1008,9 20 0 0,0
17.08.2019 16:00:00 18,3 15,7 17,6 18,3 17,1 14 8 28 15 W 1008,7 20 0 0,0
17.08.2019 15:00:00 17,1 15,4 16,7 18,3 17,2 15 8 31 17 W 1008,7 20 0 0,0
17.08.2019 14:00:00 16,6 15,5 16,5 18,1 17,2 20 11 35 19 W 1008,5 3,9 0 0,6
17.08.2019 13:00:00 18,1 15,4 17,4 18,0 17,2 18 10 33 18 WSW 1008,1 5 0 1,0
17.08.2019 12:00:00 20,1 17,5 19,9 17,9 17,1 14 7 30 16 SW 1008,1 20 0 0,0
17.08.2019 11:00:00 19,2 17,5 17,9 17,8 17,1 12 7 24 13 SSW 1007,7 20 0 0,0
17.08.2019 10:00:00 18,2 16,9 17,4 17,8 17,1 10 5 25 13 SSW 1008,0 20 0 0,0
17.08.2019 09:00:00 17,5 16,5 16,6 17,8 17,2 8 5 22 12 SSW 1007,9 14 0 0,2
17.08.2019 08:00:00 17,1 15,6 16,4 17,9 17,2 9 5 31 17 SSW 1007,8 6 0 0,2
17.08.2019 07:00:00 16,9 15,4 16,2 18,0 17,2 7 4 26 14 S 1007,7 18 0 0,0
17.08.2019 06:00:00 16,6 15,0 16,0 18,0 17,2 10 5 30 16 SSW 1007,9 13 0 0,0
17.08.2019 05:00:00 17,3 14,8 16,4 18,1 17,2 11 6 29 16 SSW 1007,9 13 0 0,0
17.08.2019 04:00:00 16,9 14,7 15,8 18,3 17,2 13 7 34 18 SSW 1007,9 20 0 0,0
17.08.2019 03:00:00 17,7 13,8 17,0 18,4 17,2 14 8 37 20 SW 1008,5 20 0 0,0
17.08.2019 02:00:00 17,8 13,5 16,6 18,6 17,2 11 6 22 12 SSW 1008,7 20 0 0,0
17.08.2019 01:00:00 17,5 13,8 16,5 18,8 17,2 10 5 23 12 S 1009,2 20 0 0,0
17.08.2019 00:00:00 17,1 14,0 15,6 18,9 17,2 12 6 22 12 SSE 1009,7 20 0 0,2
16.08.2019 23:00:00 17,3 13,8 15,7 19,1 17,2 8 4 11 6 SSE 1010,7 20 0 0,2
16.08.2019 22:00:00 18,3 13,6 16,5 19,2 17,2 6 3 13 7 SSE 1011,1 20 0 0,0
16.08.2019 21:00:00 18,7 12,9 16,8 19,3 17,2 3 2 11 6 SSW 1011,3 18 0 0,0
16.08.2019 20:00:00 19,1 14,1 18,6 19,4 17,2 4 2 13 7 WSW 1011,7 20 0 0,0
16.08.2019 19:00:00 19,4 14,9 19,8 19,3 17,2 7 4 16 9 W 1011,9 20 0 0,0
16.08.2019 18:00:00 19,9 14,9 20,8 19,2 17,2 11 6 29 16 WNW 1012,5 20 0 0,0
16.08.2019 17:00:00 22,1 12,9 23,2 19,0 17,2 10 5 34 19 SW 1013,0 20 5 0,0
16.08.2019 16:00:00 22,3 12,5 22,6 18,6 17,2 15 8 32 18 SW 1013,4 20 4 0,0
16.08.2019 15:00:00 22,9 13,1 23,6 18,2 17,2 14 8 34 18 S 1013,9 20 18 0,0
16.08.2019 14:00:00 21,5 13,1 22,8 17,8 17,2 13 7 32 17 SSW 1015,3 20 8 0,0
16.08.2019 13:00:00 21,4 13,3 23,2 17,3 17,2 10 5 26 14 S 1015,9 20 21 0,0
16.08.2019 12:00:00 21,4 13,1 22,2 16,9 17,2 13 7 26 14 S 1016,2 20 58 0,0
16.08.2019 11:00:00 19,4 13,8 20,0 16,6 17,2 8 4 17 9 S 1017,0 20 35 0,0
16.08.2019 10:00:00 17,8 14,3 17,9 16,6 17,2 8 5 19 10 SSW 1017,6 19 34 0,0
16.08.2019 09:00:00 15,7 14,4 15,1 16,6 17,2 7 4 15 8 SSW 1017,9 18 14 0,0
16.08.2019 08:00:00 14,6 13,5 13,6 16,7 17,2 5 3 14 8 SSW 1017,8 18 14 0,0
16.08.2019 07:00:00 14,2 13,1 13,3 16,8 17,3 6 4 19 10 SSW 1018,1 18 0 0,0
16.08.2019 06:00:00 14,5 13,5 12,7 16,9 17,2 6 3 10 5 S 1018,1 18 0 0,0
16.08.2019 05:00:00 14,7 13,6 13,3 17,1 17,2 5 3 11 6 SSW 1018,4 17 0 0,0
16.08.2019 04:00:00 14,9 13,8 13,8 17,2 17,3 4 2 9 5 SSW 1018,8 16 0 0,0
16.08.2019 03:00:00 15,1 13,6 14,2 17,3 17,3 3 2 14 8 SSW 1019,0 14 0 0,0
16.08.2019 02:00:00 15,8 14,3 14,5 17,5 17,3 9 5 18 10 WSW 1018,9 19 0 0,0
16.08.2019 01:00:00 15,6 13,8 14,6 17,7 17,3 11 6 18 10 WSW 1018,9 19 0 0,0
16.08.2019 00:00:00 15,8 13,6 14,8 17,9 17,3 11 6 22 12 WSW 1018,8 20 0 0,0
15.08.2019 23:00:00 16,1 13,4 15,1 18,0 17,2 16 9 28 15 W 1018,4 20 0 0,0
15.08.2019 22:00:00 16,5 13,2 15,7 18,2 17,3 16 9 34 18 W 1018,5 20 0 0,0
15.08.2019 21:00:00 17,1 13,4 16,6 18,3 17,3 25 13 43 23 W 1017,8 20 13 0,0
15.08.2019 20:00:00 17,7 13,8 17,5 18,3 17,3 25 13 43 23 W 1017,3 20 25 0,0
15.08.2019 19:00:00 18,6 13,0 19,2 18,2 17,3 28 15 49 27 W 1016,7 20 45 0,0
15.08.2019 18:00:00 19,3 13,9 19,6 18,1 17,3 33 18 51 27 W 1016,5 20 34 0,0
15.08.2019 17:00:00 19,0 13,6 17,9 18,0 17,3 35 19 55 30 W 1016,1 20 34 0,0
15.08.2019 16:00:00 17,9 13,2 17,5 17,9 17,3 32 17 55 30 W 1015,7 19 0 0,0
15.08.2019 15:00:00 19,3 13,9 19,7 17,7 17,3 36 19 61 33 W 1015,1 20 32 0,0
15.08.2019 14:00:00 18,8 13,4 19,1 17,5 17,3 36 19 58 31 W 1014,4 20 29 0,0
15.08.2019 13:00:00 18,2 14,3 18,5 17,3 17,3 28 15 55 30 W 1014,1 20 8 0,0
15.08.2019 12:00:00 17,8 14,3 17,4 17,3 17,3 29 16 48 26 W 1013,6 18 6 0,2
15.08.2019 11:00:00 17,5 14,6 16,5 17,2 17,3 27 15 48 26 W 1013,3 15 0 0,0
15.08.2019 10:00:00 17,7 15,0 17,4 17,2 17,3 26 14 44 24 W 1012,8 17 0 0,0
15.08.2019 09:00:00 17,2 14,8 15,8 17,2 17,3 21 11 42 23 W 1012,3 19 0 0,0
15.08.2019 08:00:00 16,9 14,9 15,8 17,3 17,4 23 12 37 20 W 1011,8 16 0 0,2
15.08.2019 07:00:00 16,8 14,8 16,0 17,3 17,4 23 12 39 21 W 1011,2 12 0 0,0
15.08.2019 06:00:00 16,9 14,5 16,2 17,3 17,4 23 13 38 21 W 1010,6 20 0 0,0
15.08.2019 05:00:00 17,0 15,2 16,1 17,4 17,4 21 12 39 21 W 1010,5 20 0 0,0
15.08.2019 04:00:00 16,9 15,4 16,0 17,4 17,4 11 6 26 14 WSW 1010,7 20 0 0,0
15.08.2019 03:00:00 16,8 15,1 16,0 17,5 17,4 11 6 21 12 WSW 1011,1 18 0 0,2
15.08.2019 02:00:00 16,7 15,1 16,2 17,5 17,4 8 4 21 12 SSW 1011,5 20 0 0,0
15.08.2019 01:00:00 16,6 14,8 16,0 17,7 17,4 9 5 27 15 SSW 1011,5 20 0 0,0
15.08.2019 00:00:00 17,1 14,2 16,7 17,7 17,4 9 5 28 15 SSW 1011,6 20 0 0,0
14.08.2019 23:00:00 17,0 14,1 16,3 17,8 17,4 10 6 29 15 SSW 1011,8 20 0 0,0
14.08.2019 22:00:00 16,8 14,3 15,7 17,9 17,4 11 6 34 19 S 1012,2 20 0 0,0
14.08.2019 21:00:00 17,2 14,1 16,3 17,9 17,4 10 5 22 12 SSW 1012,3 18 0 0,0
14.08.2019 20:00:00 17,5 14,4 16,1 17,9 17,4 8 4 27 14 S 1012,8 20 0 0,4
14.08.2019 19:00:00 17,9 14,4 16,0 17,8 17,4 3 2 11 6 SSW 1013,3 20 0 0,4
14.08.2019 18:00:00 17,8 13,5 15,9 17,7 17,4 9 5 23 13 WSW 1014,0 17 0 0,6
14.08.2019 17:00:00 20,0 14,1 19,3 17,4 17,4 7 4 18 10 SSW 1014,2 20 3 0,0
14.08.2019 16:00:00 19,2 13,8 19,4 17,2 17,4 11 6 19 10 SE 1014,8 20 0 0,0
14.08.2019 15:00:00 18,2 14,1 17,1 16,9 17,4 9 5 21 11 SSE 1015,9 20 0 0,2
14.08.2019 14:00:00 18,5 14,0 16,0 16,6 17,5 10 5 27 14 SSW 1016,7 20 0 0,6

tt = Température de l'air
td = dewpoint
tt 5cm = Température de l'air 5cm
tt -20cm = Température de l'air -20cm
tt -100cm = Température de l'air -100cm
ff = Vitesse du vent
fx = gusts
dd = Direction du vent
ppp = reduced air pressure
vv = visibility
sd = Ensoleillement
rr = Quantités de précipitations

stations d'obs. à proximité